User: anonymous
Location: Campbell River
(50.0170°N, 125.2500°W)
Time: 16:58:02
(UTC-07:00)
Language:

SL-8 R/B - Orbit

View from above orbital plane
View from above orbital plane
View from above satellite
View from above satellite

Ground track
Ground track

The orbit data is extracted from the following two-line orbital elements,

1 31798U 07030B   14108.16852609  .00086960  00000-0  75899-3 0   552
2 31798 098.2045 143.1844 0014470 142.6726 258.7199 15.68560297380020
Epoch (UTC): 18 April 2014 04:02:40
Eccentricity: 0.0014470
inclination: 98.2045°
perigee height: 353 km
apogee height: 373 km
right ascension of ascending node: 143.1844°
argument of perigee: 142.6726°
revolutions per day: 15.68560297
mean anomaly at epoch: 258.7199°
orbit number at epoch: 38002

The dashed part of the orbit path shows where the satellite is in the earth's shadow,  

DLR